BXS2543 LEMG-GMTT

Flight info

Callsign BXS2543
Flight time N/A
Altitude 21000
Route PIMOS N869 GALTO M143 LAMAD
Aircraft C25B/M-SDE2E3FGHRWXY/LB1

Departure

Time 2026-05-05 16:26
Airport Málaga-Costa del Sol Airport (LEMG)

Arrival

Time N/A
Airport Tangier Ibn Battuta Airport (GMTT)
Time Latitude Longitude Altitude Speed Heading
2026-05-05 16:10 36.67121 -4.48888 39 ft 0 kts 345°
2026-05-05 16:23 36.67131 -4.48884 39 ft 5 kts 63°
2026-05-05 16:24 36.67101 -4.48841 39 ft 6 kts 158°
2026-05-05 16:24 36.67047 -4.48874 39 ft 5 kts 183°
2026-05-05 16:24 36.66905 -4.48797 38 ft 22 kts 132°
2026-05-05 16:25 36.66781 -4.48626 36 ft 23 kts 130°
2026-05-05 16:25 36.66610 -4.48523 35 ft 15 kts 223°
2026-05-05 16:25 36.66574 -4.48632 36 ft 25 kts 304°
2026-05-05 16:26 36.67729 -4.50318 688 ft 197 kts 311°
2026-05-05 16:26 36.69912 -4.53618 2808 ft 276 kts 310°
2026-05-05 16:27 36.71192 -4.55502 4292 ft 292 kts 310°
2026-05-05 16:27 36.72626 -4.57349 5858 ft 302 kts 320°
2026-05-05 16:27 36.74391 -4.58715 7740 ft 294 kts 329°
2026-05-05 16:27 36.76363 -4.59740 8942 ft 327 kts 340°
2026-05-05 16:28 36.78666 -4.60534 9135 ft 354 kts 342°
2026-05-05 16:28 36.80866 -4.61260 10512 ft 296 kts 341°
2026-05-05 16:28 36.82175 -4.61720 11580 ft 294 kts 339°
2026-05-05 16:28 36.84828 -4.62748 12974 ft 300 kts 336°
2026-05-05 16:29 36.86706 -4.64016 13742 ft 319 kts 319°
2026-05-05 16:29 36.87834 -4.65305 14221 ft 333 kts 309°
2026-05-05 16:29 36.89161 -4.67730 15236 ft 333 kts 292°
2026-05-05 16:29 36.89792 -4.70362 17546 ft 302 kts 277°
2026-05-05 16:30 36.89808 -4.72879 19522 ft 287 kts 263°
2026-05-05 16:30 36.89297 -4.75358 20530 ft 304 kts 249°
2026-05-05 16:30 36.88213 -4.77766 20928 ft 338 kts 237°
2026-05-05 16:30 36.86522 -4.80039 20934 ft 377 kts 224°
2026-05-05 16:31 36.84288 -4.81938 20948 ft 410 kts 213°
2026-05-05 16:31 36.81574 -4.83341 20942 ft 435 kts 201°
2026-05-05 16:31 36.78545 -4.84098 20947 ft 449 kts 190°
2026-05-05 16:31 36.75466 -4.84088 20942 ft 438 kts 179°
2026-05-05 16:32 36.72468 -4.83433 20943 ft 435 kts 172°
2026-05-05 16:32 36.69537 -4.82596 20939 ft 429 kts 172°
2026-05-05 16:32 36.66633 -4.81847 20935 ft 424 kts 174°
2026-05-05 16:32 36.63730 -4.81321 20935 ft 420 kts 178°
2026-05-05 16:33 36.60835 -4.80929 20932 ft 417 kts 180°
2026-05-05 16:33 36.57949 -4.80691 20928 ft 415 kts 181°
2026-05-05 16:33 36.55069 -4.80347 20927 ft 417 kts 177°
2026-05-05 16:33 36.52200 -4.79819 20922 ft 417 kts 176°
2026-05-05 16:34 36.49333 -4.79343 20924 ft 415 kts 178°
2026-05-05 16:34 36.46461 -4.78961 20928 ft 414 kts 179°
2026-05-05 16:34 36.43608 -4.78765 20935 ft 407 kts 187°
2026-05-05 16:34 36.40816 -4.79130 20937 ft 401 kts 194°
2026-05-05 16:35 36.38131 -4.80000 20938 ft 396 kts 202°
2026-05-05 16:35 36.35511 -4.81066 20941 ft 396 kts 202°
2026-05-05 16:35 36.32890 -4.82117 20942 ft 396 kts 202°
2026-05-05 16:35 36.30273 -4.83185 20942 ft 396 kts 202°
2026-05-05 16:36 36.27678 -4.84240 20947 ft 396 kts 202°
2026-05-05 16:36 36.25075 -4.85291 20948 ft 396 kts 202°
2026-05-05 16:36 36.22457 -4.86347 20949 ft 395 kts 202°
2026-05-05 16:36 36.19841 -4.87406 20954 ft 395 kts 202°
2026-05-05 16:37 36.17225 -4.88463 20955 ft 395 kts 202°
2026-05-05 16:37 36.14704 -4.89746 20956 ft 389 kts 211°
2026-05-05 16:37 36.12382 -4.91441 20960 ft 386 kts 217°
2026-05-05 16:37 36.10121 -4.93246 20964 ft 387 kts 216°
2026-05-05 16:38 36.07889 -4.95004 20953 ft 366 kts 216°
2026-05-05 16:38 36.05822 -4.96629 20808 ft 339 kts 217°
2026-05-05 16:38 36.03909 -4.98138 20686 ft 316 kts 217°
2026-05-05 16:38 36.02071 -4.99605 20009 ft 314 kts 217°
2026-05-05 16:39 36.00255 -5.01036 19514 ft 311 kts 217°
2026-05-05 16:39 35.98437 -5.02473 19068 ft 310 kts 217°
2026-05-05 16:39 35.96615 -5.03904 18613 ft 310 kts 217°
2026-05-05 16:39 35.94801 -5.05342 18196 ft 309 kts 217°
2026-05-05 16:40 35.92992 -5.06760 17765 ft 307 kts 216°
2026-05-05 16:40 35.91202 -5.08174 17359 ft 304 kts 217°
2026-05-05 16:40 35.89420 -5.09572 16957 ft 303 kts 216°
2026-05-05 16:40 35.87650 -5.10969 16555 ft 301 kts 217°
2026-05-05 16:41 35.85988 -5.12499 16155 ft 296 kts 227°
2026-05-05 16:41 35.84632 -5.14342 15770 ft 292 kts 234°
2026-05-05 16:41 35.83558 -5.16484 15377 ft 290 kts 245°
2026-05-05 16:41 35.82813 -5.18745 15002 ft 288 kts 255°
2026-05-05 16:42 35.82403 -5.21157 14623 ft 287 kts 261°
2026-05-05 16:42 35.82069 -5.23582 14242 ft 287 kts 260°
2026-05-05 16:42 35.81734 -5.26008 13862 ft 287 kts 261°
2026-05-05 16:42 35.81402 -5.28437 13460 ft 287 kts 261°
2026-05-05 16:43 35.81066 -5.30860 13074 ft 286 kts 261°
2026-05-05 16:43 35.80734 -5.33280 12694 ft 286 kts 260°
2026-05-05 16:43 35.80398 -5.35680 12319 ft 283 kts 261°
2026-05-05 16:43 35.80073 -5.38064 11936 ft 281 kts 260°
2026-05-05 16:44 35.79743 -5.40430 11568 ft 281 kts 261°
2026-05-05 16:44 35.79407 -5.42833 11184 ft 288 kts 260°
2026-05-05 16:44 35.79072 -5.45268 10802 ft 286 kts 260°
2026-05-05 16:44 35.78736 -5.47630 10436 ft 282 kts 260°
2026-05-05 16:45 35.78435 -5.49963 10063 ft 270 kts 262°
2026-05-05 16:45 35.78179 -5.52226 9674 ft 262 kts 262°
2026-05-05 16:45 35.77906 -5.54399 9314 ft 252 kts 256°
2026-05-05 16:45 35.77167 -5.56312 9025 ft 246 kts 237°